Hourly Data Report for October 09, 2015

All times are specified in Local Standard Time (LST). Add 1 hour to adjust for Daylight Saving Time where and when it is observed.

PANGNIRTUNG
NUNAVUT

66°08'36.300" N
65°42'40.500" W
22.60 m
2403049
71826
WXP

Download Data

Hourly Data (October 2015)
Hourly Data Report for October 9, 2015
Temp Definition
°C
Dew Point Temp Definition
°C
Rel Hum Definition
%
Wind Dir Definition
10's deg

Wind Spd Definition
km/h
Visibility Definition
km
Stn Press Definition
kPa
Hmdx Definition


Wind Chill Definition


Weather Definition


TIME
00:00 -3.9 -7.4 77 9 2   99.96   -5 LegendNANA
01:00 -4.4 -7.8 77 16 1   99.94   -5 LegendNANA
02:00 -4.9 -8.0 79   0   99.94     LegendNANA
03:00 -4.7 -8.3 76 24 2   99.93   -6 LegendNANA
04:00 -4.1 -8.6 71 12 2   99.93   -5 LegendNANA
05:00 -5.4 -9.6 72 11 8   99.93   -9 LegendNANA
06:00 -4.6 -9.3 70 10 8   99.93   -8 LegendNANA
07:00 -4.6 -8.7 73 10 9   99.90   -8 LegendNANA
08:00 -4.5 -7.7 78 24 4   99.88   -6 LegendNANA
09:00 -3.9 -7.4 77 21 3   99.84   -5 LegendNANA
10:00 -3.7 -7.3 76 25 7   99.80   -7 LegendNANA
11:00 -2.9 -7.5 71 22 3   99.79   -4 LegendNANA
12:00 -2.4 -7.5 68   0   99.77     LegendNANA
13:00 -2.6 -6.3 76 6 3   99.74   -4 LegendNANA
14:00 -3.1 -5.7 83 26 6   99.72   -6 LegendNANA
15:00 -3.0 -5.1 85 9 1   99.68   -3 LegendNANA
16:00 -2.2 -5.1 80 9 5   99.64   -4 LegendNANA
17:00 -0.5 -5.3 70 10 16   99.59   -5 LegendNANA
18:00 -0.6 -5.7 68 8 21   99.58   -6 LegendNANA
19:00 -0.6 -5.2 71 8 18   99.55   -6 LegendNANA
20:00 -0.7 -5.0 73 8 22   99.50   -6 LegendNANA
21:00 -0.8 -4.6 75 8 26   99.45   -7 LegendNANA
22:00 -0.8 -4.1 78 8 27   99.40   -7 LegendNANA
23:00 -0.1 -4.5 72 8 36   99.32   -7 LegendNANA

Notes on Data Quality.

Legend

  • E = Estimated
  • M = Missing
  • NA = Not Available
  • ‡ = Partner data that is not subject to review by the National Climate Archives
Date modified: